[[{"header":{"parameterUnit":"m.s-1","parameterCategory":1,"la1":30.2991,"la2":30.254,"lo1":-89.0895,"lo2":-89.0444,"dy":0.0017,"dx":0.0017,"nx":28,"ny":28,"refTime":"2025-04-27T09:00:00:Z","depth":0,"parameterNumber":2,"parameterNumberName":"U-component_of_WINDS"},"data":[0,0,0,0,0,0,0,0,0,0,0,0,0,0,0,0,0,0,0,0,0,0,0,0,0,0,0,0,0,0,0,0,0,0,0,0,0,0,0,0,0,0,0,0,0,0,0,0,0,0,0,0,0,0,0,0,0,0,-0.0655,-0.0655,0,-0.0607,-0.0606,-0.0606,-0.0599,-0.0599,-0.06,-0.06,-0.055,-0.0548,-0.0546,0,0,0,0,0,0,0,0,0,0,0,0,0,-0.074,-0.0739,-0.0655,-0.0655,-0.0654,-0.0607,-0.0606,-0.0606,-0.0599,-0.0599,-0.06,-0.06,-0.055,-0.0548,-0.0546,0,0,0,0,0,0,0,0,0,0,0,0,0,-0.0699,-0.0738,-0.0655,-0.0645,-0.0643,-0.0607,-0.0606,-0.0606,-0.0598,-0.0599,-0.06,-0.06,-0.0551,-0.0548,-0.0546,-0.0517,0,0,-0.0538,-0.0537,0,0,0,0,0,0,0,0,-0.0701,-0.0696,-0.0647,-0.0645,-0.0644,-0.061,-0.0618,-0.0576,-0.0598,-0.0615,-0.06,-0.0601,-0.0569,-0.0565,-0.0554,-0.0514,-0.0512,-0.0538,-0.0536,-0.0535,-0.0534,0,0,0,0,0,0,0,-0.0704,-0.0698,-0.0636,-0.0646,-0.0644,-0.0642,-0.0637,-0.061,-0.0589,-0.0614,-0.0613,-0.0608,-0.0568,-0.0557,-0.0553,-0.0511,-0.0538,-0.0535,-0.0534,-0.0533,-0.0444,-0.0443,0,0,0,0,0,0,-0.0709,-0.07,-0.0638,-0.0635,-0.0675,-0.064,-0.0634,-0.062,-0.0589,-0.0585,-0.0607,-0.0608,-0.0561,-0.0556,-0.0551,-0.0515,-0.0535,-0.0532,-0.0531,-0.0445,-0.0444,-0.0443,0,0,0,0,0,0,-0.0711,-0.0703,-0.064,-0.0667,-0.0659,-0.0638,-0.0622,-0.0619,-0.0607,-0.0584,-0.0581,-0.06,-0.0561,-0.0555,-0.0525,-0.0513,-0.0531,-0.0529,-0.0445,-0.0444,-0.0443,-0.0441,0,0,0,0,0,0,-0.0713,-0.0704,-0.0693,-0.0667,-0.0657,-0.0614,-0.0621,-0.0617,-0.0603,-0.0603,-0.0576,-0.0572,-0.0562,-0.0529,-0.0523,-0.0509,-0.0527,-0.0447,-0.0445,-0.0444,-0.0442,-0.044,-0.0438,0,0,0,0,0,-0.0716,-0.0694,-0.0692,-0.0685,-0.0643,-0.0614,-0.0608,-0.0597,-0.0602,-0.059,-0.0576,-0.0573,-0.0515,-0.0526,-0.0519,-0.0505,-0.0447,-0.0445,-0.0444,-0.0443,-0.044,-0.0438,0,0,0,0,0,0,-0.0719,-0.0691,-0.0688,-0.0657,-0.0638,-0.0613,-0.0598,-0.0594,-0.0573,-0.0574,-0.056,-0.0554,-0.0524,-0.0511,-0.0524,-0.0474,-0.0482,-0.0478,-0.0484,-0.0481,-0.0479,-0.0483,-0.0525,0,0,0,0,0,-0.0716,-0.0695,-0.0671,-0.0646,-0.0637,-0.0619,-0.0606,-0.0598,-0.0577,-0.0569,-0.0552,-0.0532,-0.0509,-0.0494,-0.0472,-0.044,-0.0434,-0.0427,-0.0425,-0.0423,-0.042,-0.0402,-0.0398,-0.0437,-0.0437,-0.0437,0,0,-0.071,-0.0692,-0.0679,-0.0646,-0.0631,-0.0608,-0.0612,-0.0589,-0.0572,-0.0566,-0.0536,-0.0523,-0.0499,-0.0468,-0.0454,-0.0457,-0.0408,-0.0421,-0.042,-0.0418,-0.04,-0.0396,-0.0393,-0.0436,-0.0436,-0.0436,0,0,-0.0687,-0.0672,-0.0649,-0.0633,-0.0609,-0.0597,-0.0592,-0.0566,-0.0557,-0.0528,-0.0522,-0.0502,-0.0463,-0.0447,-0.0433,-0.0403,-0.04,-0.0396,-0.0386,-0.0368,-0.0365,-0.0362,-0.0351,-0.0347,-0.0394,-0.0394,-0.0394,0,-0.0682,-0.0649,-0.0638,-0.0614,-0.06,-0.0593,-0.0569,-0.0554,-0.0524,-0.0514,-0.0518,-0.0469,-0.0452,-0.0417,-0.041,-0.0399,-0.0392,-0.0399,-0.0366,-0.0363,-0.0361,-0.035,-0.0346,-0.0393,-0.0393,-0.0393,-0.0394,0,-0.0644,-0.0621,-0.0606,-0.0577,-0.0561,-0.0537,-0.0522,-0.0506,-0.05,-0.0488,-0.0457,-0.0438,-0.0411,-0.0402,-0.0396,-0.0365,-0.0368,-0.0369,-0.0376,-0.0357,-0.0346,-0.0342,-0.0393,-0.0393,-0.0393,-0.0393,0,0,-0.0622,-0.0587,-0.0581,-0.0568,-0.0541,-0.0523,-0.0499,-0.0473,-0.046,-0.0439,-0.0418,-0.0385,-0.0386,-0.0371,-0.0363,-0.0347,-0.0324,-0.035,-0.0349,-0.0346,-0.0289,-0.0288,-0.0283,-0.0322,-0.0321,-0.032,-0.029,0,-0.0596,-0.0554,-0.0542,-0.0506,-0.0484,-0.0477,-0.0456,-0.0437,-0.0425,-0.0404,-0.0391,-0.0367,-0.0371,-0.0361,-0.0345,-0.033,-0.0312,-0.0332,-0.0302,-0.0301,-0.0308,-0.0278,-0.0277,-0.0249,-0.0286,-0.0286,-0.0285,0,-0.056,-0.0538,-0.05,-0.0475,-0.0466,-0.0447,-0.0422,-0.0403,-0.0381,-0.0373,-0.0355,-0.0349,-0.0323,-0.0331,-0.0295,-0.0309,-0.0296,-0.0287,-0.0285,-0.0282,-0.0292,-0.0273,-0.024,-0.0236,-0.0279,-0.0279,-0.028,0,-0.0547,-0.0509,-0.0481,-0.0469,-0.044,-0.0427,-0.0414,-0.0392,-0.0377,-0.0355,-0.0345,-0.0321,-0.0307,-0.0288,-0.0274,-0.0282,-0.0239,-0.0247,-0.0231,-0.0232,-0.0223,-0.0223,-0.0187,-0.0215,-0.0215,-0.0215,-0.0215,0,-0.0519,-0.0496,-0.0474,-0.0457,-0.0431,-0.0418,-0.0392,-0.0378,-0.0359,-0.0339,-0.0331,-0.0312,-0.0296,-0.0274,-0.0263,-0.0235,-0.0229,-0.0221,-0.0219,-0.0222,-0.0223,-0.0213,-0.0214,-0.0214,-0.0214,-0.0214,-0.0215,0,-0.05,-0.0485,-0.0454,-0.0428,-0.0421,-0.0403,-0.0381,-0.0364,-0.0351,-0.0325,-0.0318,-0.0299,-0.0273,-0.0257,-0.0225,-0.0218,-0.0186,-0.0184,-0.0194,-0.0192,-0.0178,-0.0179,-0.0134,-0.0127,-0.0159,-0.0159,-0.0159,0,-0.0483,-0.0465,-0.0437,-0.0423,-0.041,-0.0388,-0.0372,-0.0358,-0.0342,-0.0315,-0.0301,-0.0275,-0.0253,-0.0213,-0.0195,-0.017,-0.0167,-0.0153,-0.0163,-0.0167,-0.0166,-0.0168,-0.0165,-0.0151,-0.0151,-0.0151,-0.0151,0,-0.0454,-0.0447,-0.0426,-0.0401,-0.0383,-0.0363,-0.0343,-0.0332,-0.0314,-0.0297,-0.027,-0.0254,-0.022,-0.0194,-0.0168,-0.0154,-0.0149,-0.0147,-0.0142,-0.0145,-0.0151,-0.0147,-0.0188,-0.0148,-0.0149,-0.0149,-0.0149,-0.0149,-0.0435,-0.0418,-0.0396,-0.0372,-0.0356,-0.0337,-0.0319,-0.0305,-0.0283,-0.0255,-0.0247,-0.022,-0.0197,-0.0161,-0.0146,-0.0124,-0.0126,-0.0119,-0.0117,-0.0116,-0.0115,-0.0155,-0.0119,-0.0119,-0.0119,-0.0119,-0.0119,0,-0.0405,-0.0391,-0.0369,-0.0341,-0.0322,-0.0319,-0.0297,-0.0281,-0.0257,-0.0236,-0.0215,-0.0184,-0.0159,-0.0139,-0.0113,-0.0099,-0.0096,-0.0092,-0.0093,-0.009,-0.0115,-0.0122,-0.0095,-0.0095,-0.0095,-0.0095,-0.0095,-0.0095,-0.0388,-0.0359,-0.035,-0.0313,-0.0299,-0.0272,-0.0259,-0.0241,-0.0225,-0.0191,-0.017,-0.0158,-0.0137,-0.0109,-0.0086,-0.008,-0.0071,-0.0068,-0.0062,-0.0086,-0.0088,-0.0091,-0.0097,-0.0066,-0.0066,-0.0039,-0.0038,-0.0038]},{"header":{"parameterUnit":"m.s-1","parameterCategory":1,"la1":30.2991,"la2":30.254,"lo1":-89.0895,"lo2":-89.0444,"dy":0.0017,"dx":0.0017,"nx":28,"ny":28,"refTime":"2025-04-27T09:00:00:Z","depth":0,"parameterNumber":3,"parameterNumberName":"V-component_of_WINDS"},"data":[0,0,0,0,0,0,0,0,0,0,0,0,0,0,0,0,0,0,0,0,0,0,0,0,0,0,0,0,0,0,0,0,0,0,0,0,0,0,0,0,0,0,0,0,0,0,0,0,0,0,0,0,0,0,0,0,0,0,0.4551,0.455,0,0.4486,0.4485,0.4485,0.4453,0.4453,0.4453,0.4453,0.4388,0.4387,0.4385,0,0,0,0,0,0,0,0,0,0,0,0,0,0.4649,0.4647,0.4551,0.455,0.4549,0.4486,0.4485,0.4484,0.4453,0.4453,0.4453,0.4453,0.4389,0.4387,0.4385,0,0,0,0,0,0,0,0,0,0,0,0,0,0.4597,0.4647,0.4551,0.4526,0.4523,0.4486,0.4485,0.4484,0.4453,0.4453,0.4453,0.4453,0.439,0.4387,0.4384,0.4368,0,0,0.4377,0.4375,0,0,0,0,0,0,0,0,0.46,0.4594,0.453,0.4528,0.4524,0.4478,0.4496,0.4445,0.4453,0.448,0.4453,0.4453,0.4418,0.4413,0.4401,0.4365,0.4363,0.4376,0.4375,0.4374,0.4373,0,0,0,0,0,0,0,0.4604,0.4597,0.4525,0.4529,0.4526,0.4518,0.4511,0.4486,0.445,0.4477,0.4475,0.4468,0.4416,0.4404,0.4399,0.4362,0.4376,0.4374,0.4372,0.4371,0.431,0.431,0,0,0,0,0,0,0.4611,0.46,0.4527,0.4523,0.4563,0.4517,0.4508,0.4493,0.445,0.4443,0.4468,0.4466,0.4408,0.4402,0.4397,0.4375,0.4374,0.4371,0.437,0.431,0.431,0.4309,0,0,0,0,0,0,0.4614,0.4605,0.453,0.4561,0.4551,0.4515,0.4497,0.4491,0.4478,0.4442,0.4436,0.4461,0.4408,0.4401,0.4376,0.4372,0.437,0.4368,0.431,0.431,0.431,0.4331,0,0,0,0,0,0,0.4617,0.4606,0.4599,0.4561,0.4549,0.4509,0.4497,0.449,0.4474,0.4472,0.4435,0.4429,0.4407,0.438,0.4373,0.4369,0.4366,0.431,0.431,0.431,0.4331,0.4332,0.4333,0,0,0,0,0,0.462,0.4608,0.4599,0.4591,0.454,0.4509,0.4502,0.4478,0.4474,0.4467,0.4444,0.443,0.4374,0.4377,0.437,0.4365,0.431,0.431,0.431,0.433,0.4332,0.4333,0,0,0,0,0,0,0.4648,0.4603,0.4592,0.4567,0.4542,0.4504,0.4494,0.448,0.4456,0.4455,0.4426,0.4418,0.4395,0.4377,0.4382,0.4347,0.4341,0.4339,0.4359,0.436,0.4361,0.4366,0.4364,0,0,0,0,0,0.4651,0.4629,0.4592,0.4573,0.4561,0.453,0.4516,0.4499,0.4472,0.4461,0.4436,0.4411,0.4388,0.4373,0.435,0.4328,0.432,0.4321,0.4322,0.4323,0.4322,0.431,0.431,0.4309,0.4309,0.4309,0,0,0.4657,0.463,0.4618,0.4578,0.4557,0.4536,0.4521,0.4499,0.4483,0.4458,0.4433,0.4414,0.4384,0.436,0.4349,0.4345,0.4321,0.4323,0.4324,0.4322,0.4309,0.431,0.431,0.4309,0.4309,0.4309,0,0,0.4658,0.4635,0.4618,0.4596,0.4564,0.4543,0.4539,0.4503,0.4489,0.4463,0.4443,0.4425,0.4385,0.4364,0.4349,0.4342,0.4329,0.4336,0.4341,0.433,0.433,0.433,0.4327,0.4327,0.4335,0.4335,0.4335,0,0.467,0.4637,0.461,0.4589,0.4573,0.4548,0.453,0.4511,0.4473,0.4462,0.4458,0.4408,0.4386,0.4358,0.4356,0.4345,0.4339,0.4339,0.4332,0.4331,0.4331,0.4328,0.4328,0.4336,0.4336,0.4335,0.4335,0,0.4653,0.4631,0.462,0.4583,0.4565,0.4546,0.4518,0.4503,0.4488,0.4468,0.4442,0.4415,0.4385,0.4378,0.4363,0.4347,0.4346,0.4337,0.433,0.4332,0.433,0.4328,0.4337,0.4337,0.4336,0.4336,0,0,0.4669,0.4618,0.4615,0.4598,0.456,0.4542,0.4523,0.4493,0.4481,0.4456,0.4439,0.4406,0.4398,0.438,0.4363,0.4353,0.4349,0.4345,0.4344,0.4347,0.4331,0.4337,0.4336,0.434,0.434,0.434,0.4333,0,0.4664,0.4626,0.4602,0.4574,0.4553,0.453,0.4513,0.4488,0.4469,0.4449,0.4428,0.4405,0.4396,0.4386,0.4374,0.4352,0.4346,0.4352,0.4324,0.4324,0.4332,0.4335,0.4341,0.4336,0.4332,0.4331,0.4331,0,0.4653,0.4628,0.4598,0.4563,0.4553,0.4538,0.4509,0.449,0.4462,0.4449,0.443,0.4412,0.4391,0.4386,0.4357,0.4362,0.4349,0.4337,0.4336,0.4332,0.4327,0.4331,0.4334,0.4333,0.4329,0.4329,0.433,0,0.4668,0.4626,0.4603,0.4589,0.4548,0.4538,0.452,0.4492,0.4476,0.4452,0.4441,0.4415,0.44,0.4381,0.4357,0.4356,0.433,0.4323,0.4318,0.4319,0.4314,0.4314,0.4315,0.4306,0.4306,0.4306,0.4306,0,0.4665,0.4647,0.4609,0.4594,0.4574,0.4547,0.4528,0.4509,0.4484,0.4466,0.4445,0.4428,0.4398,0.4378,0.436,0.4338,0.4332,0.4321,0.4316,0.4322,0.4324,0.4313,0.4313,0.4306,0.4306,0.4306,0.4306,0,0.4677,0.465,0.4623,0.4586,0.4577,0.4563,0.4532,0.4518,0.4498,0.4475,0.4468,0.4437,0.4412,0.4387,0.4354,0.4341,0.432,0.4314,0.433,0.4327,0.4324,0.4324,0.4317,0.4315,0.4308,0.4308,0.4308,0,0.4676,0.4662,0.4624,0.461,0.4593,0.457,0.4554,0.4527,0.4511,0.4478,0.4468,0.4442,0.4419,0.4381,0.4356,0.4331,0.4323,0.4323,0.4319,0.4326,0.4323,0.4324,0.4323,0.4324,0.4324,0.4324,0.4324,0,0.4679,0.4666,0.4643,0.4615,0.4596,0.4573,0.455,0.454,0.4508,0.4491,0.4466,0.4448,0.4414,0.4389,0.436,0.4343,0.4329,0.4325,0.4323,0.4329,0.4339,0.4333,0.4332,0.4326,0.4325,0.4325,0.4325,0.4325,0.4684,0.467,0.4641,0.4616,0.4595,0.4574,0.4558,0.4536,0.4514,0.4484,0.447,0.4444,0.4417,0.4378,0.4361,0.4341,0.4337,0.4333,0.4332,0.4332,0.4333,0.4342,0.4336,0.4336,0.4335,0.4335,0.4335,0,0.4685,0.4665,0.4642,0.4609,0.459,0.4578,0.4551,0.4536,0.4513,0.4489,0.4467,0.4438,0.4413,0.4386,0.436,0.4349,0.4342,0.4343,0.4343,0.434,0.4338,0.4343,0.4349,0.4349,0.4349,0.4349,0.4349,0.4349,0.4683,0.4659,0.4643,0.4609,0.459,0.4564,0.455,0.453,0.451,0.4478,0.4457,0.444,0.4415,0.4386,0.4363,0.4356,0.4347,0.4351,0.4341,0.4341,0.434,0.4339,0.4343,0.4349,0.4349,0.4344,0.4344,0.4344]}]]